Location: *
(37.4917°N, 71.5558°E)
Time: 03:22:36
(UTC+00:00)

USA 186 - Pass Details

Date: 09 April 2020
Orbit: 263 x 445 km, 96.9° (Epoch: 31 May)

Event Time Altitude Azimuth Distance (km) Brightness Sun altitude
Rises 13:30:45 0° 108° (ESE) 2,408 4.9 1.7°
Enters shadow 14:34:33 -57° 170° (S) 11,176 8.9 -10.5°
Maximum altitude 15:04:40 63° 259° (W) 481 2.2 -16.1°
